Year,Month,Day,Hour,Minute,Value (Times are PST for temperature in C)
2009,07,23,00,00,15.60
2009,07,23,00,01,15.60
2009,07,23,00,02,15.60
2009,07,23,00,03,15.60
2009,07,23,00,04,15.50
2009,07,23,00,05,15.50
2009,07,23,00,06,15.50
2009,07,23,00,07,15.50
2009,07,23,00,08,15.40
2009,07,23,00,09,15.40
2009,07,23,00,10,15.40
2009,07,23,00,11,15.40
2009,07,23,00,12,15.40
2009,07,23,00,13,15.40
2009,07,23,00,14,15.40
2009,07,23,00,15,15.40
2009,07,23,00,16,15.40
2009,07,23,00,17,15.40
2009,07,23,00,18,15.40
2009,07,23,00,19,15.40
2009,07,23,00,20,15.40
2009,07,23,00,21,15.40
2009,07,23,00,22,15.40
2009,07,23,00,23,15.40
2009,07,23,00,24,15.40
2009,07,23,00,25,15.40
2009,07,23,00,26,15.40
2009,07,23,00,27,15.40
2009,07,23,00,28,15.40
2009,07,23,00,29,15.30
2009,07,23,00,30,15.30
2009,07,23,00,31,15.30
2009,07,23,00,32,15.30
2009,07,23,00,33,15.30
2009,07,23,00,34,15.30
2009,07,23,00,35,15.30
2009,07,23,00,36,15.30
2009,07,23,00,37,15.30
2009,07,23,00,38,15.30
2009,07,23,00,39,15.30
2009,07,23,00,40,15.30
2009,07,23,00,41,15.30
2009,07,23,00,42,15.30
2009,07,23,00,43,15.30
2009,07,23,00,44,15.30
2009,07,23,00,45,15.20
2009,07,23,00,46,15.20
2009,07,23,00,47,15.20
2009,07,23,00,48,15.20
2009,07,23,00,49,15.20
2009,07,23,00,50,15.20
2009,07,23,00,51,15.10
2009,07,23,00,52,15.10
2009,07,23,00,53,15.10
2009,07,23,00,54,15.00
2009,07,23,00,55,15.00
2009,07,23,00,56,15.00
2009,07,23,00,57,15.00
2009,07,23,00,58,15.00
2009,07,23,00,59,15.00
2009,07,23,01,00,15.00
2009,07,23,01,01,15.00
2009,07,23,01,02,15.00
2009,07,23,01,03,15.00
2009,07,23,01,04,15.00
2009,07,23,01,05,15.00
2009,07,23,01,06,15.00
2009,07,23,01,07,15.00
2009,07,23,01,08,15.00
2009,07,23,01,09,15.00
2009,07,23,01,10,15.00
2009,07,23,01,11,15.00
2009,07,23,01,12,14.90
2009,07,23,01,13,14.90
2009,07,23,01,14,14.80
2009,07,23,01,15,14.80
2009,07,23,01,16,14.80
2009,07,23,01,17,14.70
2009,07,23,01,18,14.70
2009,07,23,01,19,14.70
2009,07,23,01,20,14.60
2009,07,23,01,21,14.60
2009,07,23,01,22,14.60
2009,07,23,01,23,14.60
2009,07,23,01,24,14.60
2009,07,23,01,25,14.60
2009,07,23,01,26,14.50
2009,07,23,01,27,14.50
2009,07,23,01,28,14.50
2009,07,23,01,29,14.50
2009,07,23,01,30,14.50
2009,07,23,01,31,14.40
2009,07,23,01,32,14.40
2009,07,23,01,33,14.40
2009,07,23,01,34,14.40
2009,07,23,01,35,14.40
2009,07,23,01,36,14.30
2009,07,23,01,37,14.30
2009,07,23,01,38,14.30
2009,07,23,01,39,14.30
2009,07,23,01,40,14.30
2009,07,23,01,41,14.30
2009,07,23,01,42,14.30
2009,07,23,01,43,14.30
2009,07,23,01,44,14.30
2009,07,23,01,45,14.20
2009,07,23,01,46,14.20
2009,07,23,01,47,14.20
2009,07,23,01,48,14.20
2009,07,23,01,49,14.20
2009,07,23,01,50,14.20
2009,07,23,01,51,14.20
2009,07,23,01,52,14.20
2009,07,23,01,53,14.20
2009,07,23,01,54,14.20
2009,07,23,01,55,14.10
2009,07,23,01,56,14.10
2009,07,23,01,57,14.10
2009,07,23,01,58,14.10
2009,07,23,01,59,14.10
2009,07,23,02,00,14.10
2009,07,23,02,01,14.10
2009,07,23,02,02,14.10
2009,07,23,02,03,14.10
2009,07,23,02,04,14.10
2009,07,23,02,05,14.10
2009,07,23,02,06,14.10
2009,07,23,02,07,14.10
2009,07,23,02,08,14.10
2009,07,23,02,09,14.10
2009,07,23,02,10,14.10
2009,07,23,02,11,14.10
2009,07,23,02,12,14.10
2009,07,23,02,13,14.10
2009,07,23,02,14,14.10
2009,07,23,02,15,14.00
2009,07,23,02,16,14.00
2009,07,23,02,17,14.00
2009,07,23,02,18,14.00
2009,07,23,02,19,14.00
2009,07,23,02,20,14.00
2009,07,23,02,21,14.10
2009,07,23,02,22,14.00
2009,07,23,02,23,14.00
2009,07,23,02,24,14.00
2009,07,23,02,25,14.00
2009,07,23,02,26,14.00
2009,07,23,02,27,14.00
2009,07,23,02,28,13.90
2009,07,23,02,29,13.90
2009,07,23,02,30,13.90
2009,07,23,02,31,13.90
2009,07,23,02,32,13.90
2009,07,23,02,33,13.90
2009,07,23,02,34,13.90
2009,07,23,02,35,13.90
2009,07,23,02,36,13.80
2009,07,23,02,37,13.80
2009,07,23,02,38,13.80
2009,07,23,02,39,13.80
2009,07,23,02,40,13.70
2009,07,23,02,41,13.70
2009,07,23,02,42,13.60
2009,07,23,02,43,13.60
2009,07,23,02,44,13.60
2009,07,23,02,45,13.50
2009,07,23,02,46,13.50
2009,07,23,02,47,13.40
2009,07,23,02,48,13.40
2009,07,23,02,49,13.40
2009,07,23,02,50,13.40
2009,07,23,02,51,13.40
2009,07,23,02,52,13.40
2009,07,23,02,53,13.30
2009,07,23,02,54,13.30
2009,07,23,02,55,13.30
2009,07,23,02,56,13.30
2009,07,23,02,57,13.30
2009,07,23,02,58,13.30
2009,07,23,02,59,13.30
2009,07,23,03,00,13.30
2009,07,23,03,01,13.30
2009,07,23,03,02,13.30
2009,07,23,03,03,13.30
2009,07,23,03,04,13.30
2009,07,23,03,05,13.30
2009,07,23,03,06,13.30
2009,07,23,03,07,13.30
2009,07,23,03,08,13.30
2009,07,23,03,09,13.30
2009,07,23,03,10,13.30
2009,07,23,03,11,13.30
2009,07,23,03,12,13.30
2009,07,23,03,13,13.30
2009,07,23,03,14,13.30
2009,07,23,03,15,13.30
2009,07,23,03,16,13.30
2009,07,23,03,17,13.30
2009,07,23,03,18,13.30
2009,07,23,03,19,13.30
2009,07,23,03,20,13.20
2009,07,23,03,21,13.20
2009,07,23,03,22,13.20
2009,07,23,03,23,13.20
2009,07,23,03,24,13.20
2009,07,23,03,25,13.20
2009,07,23,03,26,13.20
2009,07,23,03,27,13.20
2009,07,23,03,28,13.20
2009,07,23,03,29,13.20
2009,07,23,03,30,13.20
2009,07,23,03,31,13.20
2009,07,23,03,32,13.20
2009,07,23,03,33,13.20
2009,07,23,03,34,13.20
2009,07,23,03,35,13.20
2009,07,23,03,36,13.20
2009,07,23,03,37,13.20
2009,07,23,03,38,13.20
2009,07,23,03,39,13.20
2009,07,23,03,40,13.20
2009,07,23,03,41,13.20
2009,07,23,03,42,13.20
2009,07,23,03,43,13.20
2009,07,23,03,44,13.10
2009,07,23,03,45,13.10
2009,07,23,03,46,13.10
2009,07,23,03,47,13.10
2009,07,23,03,48,13.10
2009,07,23,03,49,13.10
2009,07,23,03,50,13.10
2009,07,23,03,51,13.10
2009,07,23,03,52,13.10
2009,07,23,03,53,13.00
2009,07,23,03,54,13.00
2009,07,23,03,55,13.00
2009,07,23,03,56,13.00
2009,07,23,03,57,12.90
2009,07,23,03,58,12.90
2009,07,23,03,59,12.90
2009,07,23,04,00,12.90
2009,07,23,04,01,12.90
2009,07,23,04,02,12.90
2009,07,23,04,03,12.90
2009,07,23,04,04,12.80
2009,07,23,04,05,12.80
2009,07,23,04,06,12.80
2009,07,23,04,07,12.80
2009,07,23,04,08,12.80
2009,07,23,04,09,12.70
2009,07,23,04,10,12.70
2009,07,23,04,11,12.70
2009,07,23,04,12,12.60
2009,07,23,04,13,12.60
2009,07,23,04,14,12.60
2009,07,23,04,15,12.60
2009,07,23,04,16,12.60
2009,07,23,04,17,12.60
2009,07,23,04,18,12.60
2009,07,23,04,19,12.60
2009,07,23,04,20,12.60
2009,07,23,04,21,12.60
2009,07,23,04,22,12.60
2009,07,23,04,23,12.60
2009,07,23,04,24,12.60
2009,07,23,04,25,12.60
2009,07,23,04,26,12.60
2009,07,23,04,27,12.60
2009,07,23,04,28,12.60
2009,07,23,04,29,12.60
2009,07,23,04,30,12.50
2009,07,23,04,31,12.50
2009,07,23,04,32,12.50
2009,07,23,04,33,12.40
2009,07,23,04,34,12.40
2009,07,23,04,35,12.40
2009,07,23,04,36,12.40
2009,07,23,04,37,12.40
2009,07,23,04,38,12.30
2009,07,23,04,39,12.30
2009,07,23,04,40,12.30
2009,07,23,04,41,12.30
2009,07,23,04,42,12.30
2009,07,23,04,43,12.30
2009,07,23,04,44,12.30
2009,07,23,04,45,12.30
2009,07,23,04,46,12.30
2009,07,23,04,47,12.30
2009,07,23,04,48,12.30
2009,07,23,04,49,12.30
2009,07,23,04,50,12.30
2009,07,23,04,51,12.30
2009,07,23,04,52,12.30
2009,07,23,04,53,12.30
2009,07,23,04,54,12.30
2009,07,23,04,55,12.30
2009,07,23,04,56,12.30
2009,07,23,04,57,12.30
2009,07,23,04,58,12.30
2009,07,23,04,59,12.30
2009,07,23,05,00,12.30
2009,07,23,05,01,12.30
2009,07,23,05,02,12.30
2009,07,23,05,03,12.30
2009,07,23,05,04,12.30
2009,07,23,05,05,12.30
2009,07,23,05,06,12.30
2009,07,23,05,07,12.30
2009,07,23,05,08,12.30
2009,07,23,05,09,12.30
2009,07,23,05,10,12.30
2009,07,23,05,11,12.30
2009,07,23,05,12,12.20
2009,07,23,05,13,12.20
2009,07,23,05,14,12.20
2009,07,23,05,15,12.20
2009,07,23,05,16,12.20
2009,07,23,05,17,12.20
2009,07,23,05,18,12.20
2009,07,23,05,19,12.20
2009,07,23,05,20,12.10
2009,07,23,05,21,12.10
2009,07,23,05,22,12.10
2009,07,23,05,23,12.10
2009,07,23,05,24,12.10
2009,07,23,05,25,12.10
2009,07,23,05,26,12.10
2009,07,23,05,27,12.10
2009,07,23,05,28,12.10
2009,07,23,05,29,12.10
2009,07,23,05,30,12.10
2009,07,23,05,31,12.10
2009,07,23,05,32,12.10
2009,07,23,05,33,12.10
2009,07,23,05,34,12.00
2009,07,23,05,35,12.00
2009,07,23,05,36,12.00
2009,07,23,05,37,12.00
2009,07,23,05,38,12.00
2009,07,23,05,39,11.90
2009,07,23,05,40,11.90
2009,07,23,05,41,11.90
2009,07,23,05,42,11.90
2009,07,23,05,43,11.90
2009,07,23,05,44,11.90
2009,07,23,05,45,11.90
2009,07,23,05,46,11.90
2009,07,23,05,47,11.90
2009,07,23,05,48,11.90
2009,07,23,05,49,11.90
2009,07,23,05,50,11.80
2009,07,23,05,51,11.80
2009,07,23,05,52,11.80
2009,07,23,05,53,11.80
2009,07,23,05,54,11.80
2009,07,23,05,55,11.80
2009,07,23,05,56,11.80
2009,07,23,05,57,11.80
2009,07,23,05,58,11.80
2009,07,23,05,59,11.70
2009,07,23,06,00,11.70
2009,07,23,06,01,11.70
2009,07,23,06,02,11.70
2009,07,23,06,03,11.70
2009,07,23,06,04,11.70
2009,07,23,06,05,11.70
2009,07,23,06,06,11.70
2009,07,23,06,07,11.70
2009,07,23,06,08,11.70
2009,07,23,06,09,11.80
2009,07,23,06,10,11.80
2009,07,23,06,11,11.80
2009,07,23,06,12,11.80
2009,07,23,06,13,11.80
2009,07,23,06,14,11.90
2009,07,23,06,15,11.90
2009,07,23,06,16,11.90
2009,07,23,06,17,11.90
2009,07,23,06,18,11.90
2009,07,23,06,19,11.90
2009,07,23,06,20,11.90
2009,07,23,06,21,12.00
2009,07,23,06,22,12.00
2009,07,23,06,23,12.00
2009,07,23,06,24,12.10
2009,07,23,06,25,12.10
2009,07,23,06,26,12.10
2009,07,23,06,27,12.10
2009,07,23,06,28,12.20
2009,07,23,06,29,12.20
2009,07,23,06,30,12.30
2009,07,23,06,31,12.30
2009,07,23,06,32,12.40
2009,07,23,06,33,12.40
2009,07,23,06,34,12.50
2009,07,23,06,35,12.50
2009,07,23,06,36,12.60
2009,07,23,06,37,12.70
2009,07,23,06,38,12.70
2009,07,23,06,39,12.80
2009,07,23,06,40,12.80
2009,07,23,06,41,12.90
2009,07,23,06,42,13.00
2009,07,23,06,43,13.00
2009,07,23,06,44,13.10
2009,07,23,06,45,13.20
2009,07,23,06,46,13.20
2009,07,23,06,47,13.30
2009,07,23,06,48,13.30
2009,07,23,06,49,13.30
2009,07,23,06,50,13.30
2009,07,23,06,51,13.40
2009,07,23,06,52,13.40
2009,07,23,06,53,13.40
2009,07,23,06,54,13.50
2009,07,23,06,55,13.50
2009,07,23,06,56,13.60
2009,07,23,06,57,13.60
2009,07,23,06,58,13.60
2009,07,23,06,59,13.60
2009,07,23,07,00,13.70
2009,07,23,07,01,13.70
2009,07,23,07,02,13.80
2009,07,23,07,03,13.80
2009,07,23,07,04,13.90
2009,07,23,07,05,14.00
2009,07,23,07,06,14.00
2009,07,23,07,07,14.10
2009,07,23,07,08,14.20
2009,07,23,07,09,14.30
2009,07,23,07,10,14.40
2009,07,23,07,11,14.50
2009,07,23,07,12,14.50
2009,07,23,07,13,14.70
2009,07,23,07,14,14.70
2009,07,23,07,15,14.80
2009,07,23,07,16,14.90
2009,07,23,07,17,15.00
2009,07,23,07,18,15.00
2009,07,23,07,19,15.00
2009,07,23,07,20,15.00
2009,07,23,07,21,15.00
2009,07,23,07,22,15.00
2009,07,23,07,23,15.00
2009,07,23,07,24,15.00
2009,07,23,07,25,15.10
2009,07,23,07,26,15.20
2009,07,23,07,27,15.30
2009,07,23,07,28,15.40
2009,07,23,07,29,15.50
2009,07,23,07,30,15.50
2009,07,23,07,31,15.60
2009,07,23,07,32,15.70
2009,07,23,07,33,15.70
2009,07,23,07,34,15.80
2009,07,23,07,35,15.80
2009,07,23,07,36,15.80
2009,07,23,07,37,15.80
2009,07,23,07,38,15.80
2009,07,23,07,39,15.70
2009,07,23,07,40,15.70
2009,07,23,07,41,15.60
2009,07,23,07,42,15.50
2009,07,23,07,43,15.40
2009,07,23,07,44,15.40
2009,07,23,07,45,15.30
2009,07,23,07,46,15.30
2009,07,23,07,47,15.30
2009,07,23,07,48,15.10
2009,07,23,07,49,15.00
2009,07,23,07,50,15.00
2009,07,23,07,51,15.00
2009,07,23,07,52,15.00
2009,07,23,07,53,15.00
2009,07,23,07,54,15.00
2009,07,23,07,55,15.00
2009,07,23,07,56,15.00
2009,07,23,07,57,15.20
2009,07,23,07,58,15.30
2009,07,23,07,59,15.40
2009,07,23,08,00,15.50
2009,07,23,08,01,15.60
2009,07,23,08,02,15.60
2009,07,23,08,03,15.60
2009,07,23,08,04,15.70
2009,07,23,08,05,15.80
2009,07,23,08,06,15.80
2009,07,23,08,07,15.80
2009,07,23,08,08,15.90
2009,07,23,08,09,15.90
2009,07,23,08,10,16.00
2009,07,23,08,11,16.10
2009,07,23,08,12,16.10
2009,07,23,08,13,16.10
2009,07,23,08,14,16.20
2009,07,23,08,15,16.20
2009,07,23,08,16,16.30
2009,07,23,08,17,16.30
2009,07,23,08,18,16.40
2009,07,23,08,19,16.40
2009,07,23,08,20,16.50
2009,07,23,08,21,16.60
2009,07,23,08,22,16.70
2009,07,23,08,23,16.80
2009,07,23,08,24,17.00
2009,07,23,08,25,17.00
2009,07,23,08,26,17.10
2009,07,23,08,27,17.20
2009,07,23,08,28,17.30
2009,07,23,08,29,17.30
2009,07,23,08,30,17.40
2009,07,23,08,31,17.40
2009,07,23,08,32,17.50
2009,07,23,08,33,17.50
2009,07,23,08,34,17.60
2009,07,23,08,35,17.70
2009,07,23,08,36,17.70
2009,07,23,08,37,17.80
2009,07,23,08,38,17.70
2009,07,23,08,39,17.60
2009,07,23,08,40,17.40
2009,07,23,08,41,17.30
2009,07,23,08,42,17.20
2009,07,23,08,43,17.20
2009,07,23,08,44,17.20
2009,07,23,08,45,17.30
2009,07,23,08,46,17.30
2009,07,23,08,47,17.30
2009,07,23,08,48,17.20
2009,07,23,08,49,17.10
2009,07,23,08,50,17.10
2009,07,23,08,51,17.10
2009,07,23,08,52,17.10
2009,07,23,08,53,17.20
2009,07,23,08,54,17.20
2009,07,23,08,55,17.30
2009,07,23,08,56,17.20
2009,07,23,08,57,17.20
2009,07,23,08,58,17.30
2009,07,23,08,59,17.30
2009,07,23,09,00,17.30
2009,07,23,09,01,17.40
2009,07,23,09,02,17.40
2009,07,23,09,03,17.40
2009,07,23,09,04,17.40
2009,07,23,09,05,17.40
2009,07,23,09,06,17.50
2009,07,23,09,07,17.60
2009,07,23,09,08,17.70
2009,07,23,09,09,17.80
2009,07,23,09,10,17.80
2009,07,23,09,11,17.80
2009,07,23,09,12,17.80
2009,07,23,09,13,17.80
2009,07,23,09,14,17.90
2009,07,23,09,15,17.90
2009,07,23,09,16,17.80
2009,07,23,09,17,17.80
2009,07,23,09,18,17.70
2009,07,23,09,19,17.60
2009,07,23,09,20,17.60
2009,07,23,09,21,17.50
2009,07,23,09,22,17.50
2009,07,23,09,23,17.40
2009,07,23,09,24,17.30
2009,07,23,09,25,17.30
2009,07,23,09,26,17.30
2009,07,23,09,27,17.30
2009,07,23,09,28,17.30
2009,07,23,09,29,17.30
2009,07,23,09,30,17.20
2009,07,23,09,31,17.20
2009,07,23,09,32,17.00
2009,07,23,09,33,17.00
2009,07,23,09,34,16.90
2009,07,23,09,35,16.90
2009,07,23,09,36,17.00
2009,07,23,09,37,17.00
2009,07,23,09,38,17.10
2009,07,23,09,39,17.10
2009,07,23,09,40,17.20
2009,07,23,09,41,17.30
2009,07,23,09,42,17.40
2009,07,23,09,43,17.50
2009,07,23,09,44,17.50
2009,07,23,09,45,17.50
2009,07,23,09,46,17.60
2009,07,23,09,47,17.60
2009,07,23,09,48,17.70
2009,07,23,09,49,17.70
2009,07,23,09,50,17.80
2009,07,23,09,51,17.80
2009,07,23,09,52,17.80
2009,07,23,09,53,17.80
2009,07,23,09,54,17.70
2009,07,23,09,55,17.60
2009,07,23,09,56,17.60
2009,07,23,09,57,17.60
2009,07,23,09,58,17.70
2009,07,23,09,59,17.70
2009,07,23,10,00,17.80
2009,07,23,10,01,17.70
2009,07,23,10,02,17.70
2009,07,23,10,03,17.60
2009,07,23,10,04,17.70
2009,07,23,10,05,17.50
2009,07,23,10,06,17.40
2009,07,23,10,07,17.40
2009,07,23,10,08,17.40
2009,07,23,10,09,17.30
2009,07,23,10,10,17.30
2009,07,23,10,11,17.30
2009,07,23,10,12,17.30
2009,07,23,10,13,17.30
2009,07,23,10,14,17.30
2009,07,23,10,15,17.20
2009,07,23,10,16,17.30
2009,07,23,10,17,17.30
2009,07,23,10,18,17.30
2009,07,23,10,19,17.20
2009,07,23,10,20,17.30
2009,07,23,10,21,17.30
2009,07,23,10,22,17.30
2009,07,23,10,23,17.40
2009,07,23,10,24,17.40
2009,07,23,10,25,17.40
2009,07,23,10,26,17.50
2009,07,23,10,27,17.50
2009,07,23,10,28,17.60
2009,07,23,10,29,17.60
2009,07,23,10,30,17.70
2009,07,23,10,31,17.70
2009,07,23,10,32,17.60
2009,07,23,10,33,17.60
2009,07,23,10,34,17.50
2009,07,23,10,35,17.40
2009,07,23,10,36,17.30
2009,07,23,10,37,17.20
2009,07,23,10,38,17.20
2009,07,23,10,39,17.20
2009,07,23,10,40,17.30
2009,07,23,10,41,17.40
2009,07,23,10,42,17.50
2009,07,23,10,43,17.60
2009,07,23,10,44,17.70
2009,07,23,10,45,17.80
2009,07,23,10,46,17.80
2009,07,23,10,47,17.80
2009,07,23,10,48,17.80
2009,07,23,10,49,17.80
2009,07,23,10,50,17.80
2009,07,23,10,51,17.70
2009,07,23,10,52,17.60
2009,07,23,10,53,17.60
2009,07,23,10,54,17.70
2009,07,23,10,55,17.80
2009,07,23,10,56,17.70
2009,07,23,10,57,17.80
2009,07,23,10,58,17.80
2009,07,23,10,59,17.80
2009,07,23,11,00,17.70
2009,07,23,11,01,17.70
2009,07,23,11,02,17.70
2009,07,23,11,03,17.80
2009,07,23,11,04,17.90
2009,07,23,11,05,17.90
2009,07,23,11,06,17.90
2009,07,23,11,07,17.80
2009,07,23,11,08,17.90
2009,07,23,11,09,17.90
2009,07,23,11,10,17.90
2009,07,23,11,11,17.90
2009,07,23,11,12,18.00
2009,07,23,11,13,18.10
2009,07,23,11,14,18.10
2009,07,23,11,15,18.00
2009,07,23,11,16,17.90
2009,07,23,11,17,17.90
2009,07,23,11,18,17.80
2009,07,23,11,19,17.90
2009,07,23,11,20,18.00
2009,07,23,11,21,18.00
2009,07,23,11,22,18.00
2009,07,23,11,23,17.90
2009,07,23,11,24,17.90
2009,07,23,11,25,17.90
2009,07,23,11,26,17.80
2009,07,23,11,27,17.80
2009,07,23,11,28,17.80
2009,07,23,11,29,17.80
2009,07,23,11,30,17.80
2009,07,23,11,31,17.90
2009,07,23,11,32,17.90
2009,07,23,11,33,17.90
2009,07,23,11,34,18.00
2009,07,23,11,35,18.10
2009,07,23,11,36,18.20
2009,07,23,11,37,18.30
2009,07,23,11,38,18.20
2009,07,23,11,39,18.20
2009,07,23,11,40,18.20
2009,07,23,11,41,18.30
2009,07,23,11,42,18.30
2009,07,23,11,43,18.30
2009,07,23,11,44,18.20
2009,07,23,11,45,18.30
2009,07,23,11,46,18.30
2009,07,23,11,47,18.40
2009,07,23,11,48,18.40
2009,07,23,11,49,18.40
2009,07,23,11,50,18.40
2009,07,23,11,51,18.40
2009,07,23,11,52,18.40
2009,07,23,11,53,18.40
2009,07,23,11,54,18.40
2009,07,23,11,55,18.50
2009,07,23,11,56,18.60
2009,07,23,11,57,18.80
2009,07,23,11,58,18.80
2009,07,23,11,59,18.70
2009,07,23,12,00,18.70
2009,07,23,12,01,18.80
2009,07,23,12,02,18.80
2009,07,23,12,03,18.80
2009,07,23,12,04,18.80
2009,07,23,12,05,18.90
2009,07,23,12,06,18.90
2009,07,23,12,07,19.00
2009,07,23,12,08,19.10
2009,07,23,12,09,19.20
2009,07,23,12,10,19.10
2009,07,23,12,11,19.10
2009,07,23,12,12,19.10
2009,07,23,12,13,19.20
2009,07,23,12,14,19.10
2009,07,23,12,15,19.20
2009,07,23,12,16,19.30
2009,07,23,12,17,19.30
2009,07,23,12,18,19.20
2009,07,23,12,19,19.10
2009,07,23,12,20,19.10
2009,07,23,12,21,19.10
2009,07,23,12,22,19.10
2009,07,23,12,23,19.10
2009,07,23,12,24,19.10
2009,07,23,12,25,19.10
2009,07,23,12,26,19.10
2009,07,23,12,27,19.00
2009,07,23,12,28,19.00
2009,07,23,12,29,18.90
2009,07,23,12,30,18.90
2009,07,23,12,31,18.80
2009,07,23,12,32,18.60
2009,07,23,12,33,18.50
2009,07,23,12,34,18.40
2009,07,23,12,35,18.30
2009,07,23,12,36,18.20
2009,07,23,12,37,18.10
2009,07,23,12,38,17.90
2009,07,23,12,39,17.80
2009,07,23,12,40,17.70
2009,07,23,12,41,17.60
2009,07,23,12,42,17.50
2009,07,23,12,43,17.50
2009,07,23,12,44,17.50
2009,07,23,12,45,17.50
2009,07,23,12,46,17.70
2009,07,23,12,47,17.80
2009,07,23,12,48,17.90
2009,07,23,12,49,18.00
2009,07,23,12,50,18.10
2009,07,23,12,51,18.20
2009,07,23,12,52,18.20
2009,07,23,12,53,18.20
2009,07,23,12,54,18.30
2009,07,23,12,55,18.40
2009,07,23,12,56,18.50
2009,07,23,12,57,18.60
2009,07,23,12,58,18.70
2009,07,23,12,59,18.80
2009,07,23,13,00,18.90
2009,07,23,13,01,18.90
2009,07,23,13,02,18.90
2009,07,23,13,03,18.80
2009,07,23,13,04,18.80
2009,07,23,13,05,18.70
2009,07,23,13,06,18.70
2009,07,23,13,07,18.60
2009,07,23,13,08,18.60
2009,07,23,13,09,18.60
2009,07,23,13,10,18.70
2009,07,23,13,11,18.70
2009,07,23,13,12,18.60
2009,07,23,13,13,18.60
2009,07,23,13,14,18.60
2009,07,23,13,15,18.60
2009,07,23,13,16,18.60
2009,07,23,13,17,18.60
2009,07,23,13,18,18.60
2009,07,23,13,19,18.60
2009,07,23,13,20,18.70
2009,07,23,13,21,18.80
2009,07,23,13,22,18.70
2009,07,23,13,23,18.70
2009,07,23,13,24,18.70
2009,07,23,13,25,18.70
2009,07,23,13,26,18.60
2009,07,23,13,27,18.60
2009,07,23,13,28,18.70
2009,07,23,13,29,18.80
2009,07,23,13,30,18.90
2009,07,23,13,31,19.00
2009,07,23,13,32,19.00
2009,07,23,13,33,19.20
2009,07,23,13,34,19.20
2009,07,23,13,35,19.20
2009,07,23,13,36,19.10
2009,07,23,13,37,19.10
2009,07,23,13,38,19.00
2009,07,23,13,39,18.90
2009,07,23,13,40,18.90
2009,07,23,13,41,18.90
2009,07,23,13,42,18.90
2009,07,23,13,43,19.00
2009,07,23,13,44,19.00
2009,07,23,13,45,19.00
2009,07,23,13,46,18.80
2009,07,23,13,47,18.70
2009,07,23,13,48,18.60
2009,07,23,13,49,18.50
2009,07,23,13,50,18.50
2009,07,23,13,51,18.50
2009,07,23,13,52,18.50
2009,07,23,13,53,18.60
2009,07,23,13,54,18.70
2009,07,23,13,55,18.80
2009,07,23,13,56,18.80
2009,07,23,13,57,18.80
2009,07,23,13,58,18.80
2009,07,23,13,59,18.90
2009,07,23,14,00,19.00
2009,07,23,14,01,19.10
2009,07,23,14,02,19.20
2009,07,23,14,03,19.30
2009,07,23,14,04,19.30
2009,07,23,14,05,19.30
2009,07,23,14,06,19.20
2009,07,23,14,07,19.20
2009,07,23,14,08,19.10
2009,07,23,14,09,19.10
2009,07,23,14,10,19.10
2009,07,23,14,11,19.30
2009,07,23,14,12,19.30
2009,07,23,14,13,19.30
2009,07,23,14,14,19.30
2009,07,23,14,15,19.40
2009,07,23,14,16,19.40
2009,07,23,14,17,19.50
2009,07,23,14,18,19.50
2009,07,23,14,19,19.50
2009,07,23,14,20,19.50
2009,07,23,14,21,19.50
2009,07,23,14,22,19.50
2009,07,23,14,23,19.50
2009,07,23,14,24,19.60
2009,07,23,14,25,19.70
2009,07,23,14,26,19.80
2009,07,23,14,27,19.90
2009,07,23,14,28,19.90
2009,07,23,14,29,20.00
2009,07,23,14,30,20.00
2009,07,23,14,31,19.90
2009,07,23,14,32,19.80
2009,07,23,14,33,19.80
2009,07,23,14,34,19.70
2009,07,23,14,35,19.50
2009,07,23,14,36,19.40
2009,07,23,14,37,19.40
2009,07,23,14,38,19.30
2009,07,23,14,39,19.30
2009,07,23,14,40,19.30
2009,07,23,14,41,19.40
2009,07,23,14,42,19.40
2009,07,23,14,43,19.40
2009,07,23,14,44,19.50
2009,07,23,14,45,19.60
2009,07,23,14,46,19.60
2009,07,23,14,47,19.60
2009,07,23,14,48,19.70
2009,07,23,14,49,19.60
2009,07,23,14,50,19.70
2009,07,23,14,51,19.70
2009,07,23,14,52,19.70
2009,07,23,14,53,19.70
2009,07,23,14,54,19.70
2009,07,23,14,55,19.70
2009,07,23,14,56,19.70
2009,07,23,14,57,19.60
2009,07,23,14,58,19.50
2009,07,23,14,59,19.60
2009,07,23,15,00,19.60
2009,07,23,15,01,19.60
2009,07,23,15,02,19.60
2009,07,23,15,03,19.50
2009,07,23,15,04,19.50
2009,07,23,15,05,19.70
2009,07,23,15,06,19.80
2009,07,23,15,07,19.90
2009,07,23,15,08,20.00
2009,07,23,15,09,20.10
2009,07,23,15,10,20.20
2009,07,23,15,11,20.20
2009,07,23,15,12,20.30
2009,07,23,15,13,20.40
2009,07,23,15,14,20.50
2009,07,23,15,15,20.60
2009,07,23,15,16,20.60
2009,07,23,15,17,20.70
2009,07,23,15,18,20.70
2009,07,23,15,19,20.90
2009,07,23,15,20,21.00
2009,07,23,15,21,21.10
2009,07,23,15,22,21.10
2009,07,23,15,23,21.10
2009,07,23,15,24,21.20
2009,07,23,15,25,21.20
2009,07,23,15,26,21.30
2009,07,23,15,27,21.30
2009,07,23,15,28,21.30
2009,07,23,15,29,21.30
2009,07,23,15,30,21.20
2009,07,23,15,31,21.10
2009,07,23,15,32,21.10
2009,07,23,15,33,21.10
2009,07,23,15,34,21.00
2009,07,23,15,35,20.90
2009,07,23,15,36,20.80
2009,07,23,15,37,20.70
2009,07,23,15,38,20.80
2009,07,23,15,39,20.80
2009,07,23,15,40,20.70
2009,07,23,15,41,20.60
2009,07,23,15,42,20.40
2009,07,23,15,43,20.10
2009,07,23,15,44,19.80
2009,07,23,15,45,19.60
2009,07,23,15,46,19.40
2009,07,23,15,47,19.30
2009,07,23,15,48,19.40
2009,07,23,15,49,19.50
2009,07,23,15,50,19.70
2009,07,23,15,51,19.90
2009,07,23,15,52,20.10
2009,07,23,15,53,20.20
2009,07,23,15,54,20.40
2009,07,23,15,55,20.40
2009,07,23,15,56,20.40
2009,07,23,15,57,20.50
2009,07,23,15,58,20.60
2009,07,23,15,59,20.70
2009,07,23,16,00,20.70
2009,07,23,16,01,20.50
2009,07,23,16,02,20.40
2009,07,23,16,03,20.20
2009,07,23,16,04,20.20
2009,07,23,16,05,20.10
2009,07,23,16,06,20.00
2009,07,23,16,07,20.00
2009,07,23,16,08,20.10
2009,07,23,16,09,20.20
2009,07,23,16,10,20.20
2009,07,23,16,11,20.30
2009,07,23,16,12,20.40
2009,07,23,16,13,20.40
2009,07,23,16,14,20.30
2009,07,23,16,15,20.20
2009,07,23,16,16,20.20
2009,07,23,16,17,20.10
2009,07,23,16,18,20.10
2009,07,23,16,19,20.00
2009,07,23,16,20,20.00
2009,07,23,16,21,19.90
2009,07,23,16,22,19.90
2009,07,23,16,23,19.80
2009,07,23,16,24,19.70
2009,07,23,16,25,19.70
2009,07,23,16,26,19.70
2009,07,23,16,27,19.70
2009,07,23,16,28,19.80
2009,07,23,16,29,19.90
2009,07,23,16,30,20.00
2009,07,23,16,31,20.10
2009,07,23,16,32,20.20
2009,07,23,16,33,20.30
2009,07,23,16,34,20.20
2009,07,23,16,35,20.10
2009,07,23,16,36,20.10
2009,07,23,16,37,20.00
2009,07,23,16,38,19.90
2009,07,23,16,39,19.80
2009,07,23,16,40,19.70
2009,07,23,16,41,19.60
2009,07,23,16,42,19.60
2009,07,23,16,43,19.70
2009,07,23,16,44,19.80
2009,07,23,16,45,19.80
2009,07,23,16,46,19.90
2009,07,23,16,47,19.90
2009,07,23,16,48,20.00
2009,07,23,16,49,20.00
2009,07,23,16,50,19.90
2009,07,23,16,51,19.90
2009,07,23,16,52,19.80
2009,07,23,16,53,19.70
2009,07,23,16,54,19.60
2009,07,23,16,55,19.40
2009,07,23,16,56,19.30
2009,07,23,16,57,19.20
2009,07,23,16,58,19.10
2009,07,23,16,59,19.00
2009,07,23,17,00,18.90
2009,07,23,17,01,18.70
2009,07,23,17,02,18.60
2009,07,23,17,03,18.50
2009,07,23,17,04,18.40
2009,07,23,17,05,18.30
2009,07,23,17,06,18.10
2009,07,23,17,07,18.10
2009,07,23,17,08,18.00
2009,07,23,17,09,18.10
2009,07,23,17,10,18.10
2009,07,23,17,11,18.10
2009,07,23,17,12,18.10
2009,07,23,17,13,18.10
2009,07,23,17,14,18.20
2009,07,23,17,15,18.30
2009,07,23,17,16,18.40
2009,07,23,17,17,18.50
2009,07,23,17,18,18.50
2009,07,23,17,19,18.60